Flag for U.S.A. Weather past 2 weeks in Coeur d'Alene, Idaho, U.S.A.

Now
57 °F

Sunny.


Feels Like: 57 °F
Forecast: 39 / 73 °F
Wind: 3 mph from Northwest

Location: Coeur d'Alene Weather Reporting System

Current Time: May 3, 2015 at 9:10:02 PM

Latest Report: May 3, 2015 at 8:15 PM


Visibility: 10 mi

Pressure: 29.89 "Hg

Humidity: 31%

Dew point: 27 °F

Location of Coeur d'AleneLocation

Historic Weather in Coeur d'Alene — Graph

°F

Coeur d'Alene temperature yesterday

Maximum temperature yesterday: 64 °F (at 1:55 PM)
Minimum temperature yesterday: 43 °F (at 4:55 AM)
Average temperature yesterday: 54 °F

Past Weeks' High & Low Weather Summary

 TemperatureHumidityPressure
High79 °F (Apr 28, 3:55 PM)100% (Apr 28, 3:35 AM)30.37 "Hg (Apr 28, 3:35 AM)
Low32 °F (Apr 25, 3:15 AM)11% (Apr 28, 3:15 AM)29.70 "Hg (Apr 24, 2:35 AM)
Average51 °F54%29.99 "Hg
* Reported Apr 18 7:15 PM — May 3 7:55 PM, Coeur d'Alene, Weather by CustomWeather, © 2015

Note: Actual official high and low records may vary slightly from our data, if they occured in-between our weather recording intervals... More about our weather records

Advertising

Coeur d'Alene weather history for previous 24 hours

 ConditionsComfort  
Time TempWeatherWind HumidityBarometerVisibility
7:55 PM
Sun, May 3
63 °FSunny.5 mph24%29.89 "Hg10 mi
7:35 PM63 °FSunny.5 mph27%29.89 "Hg10 mi
7:15 PM64 °FSunny.3 mph26%29.89 "Hg10 mi
6:55 PM66 °FSunny.3 mph21%29.89 "Hg10 mi
6:35 PM66 °FSunny.No wind21%29.89 "Hg10 mi
6:15 PM66 °FSunny.3 mph18%29.89 "Hg10 mi
5:55 PM66 °FSunny.No wind19%29.89 "Hg10 mi
5:35 PM68 °FSunny.6 mph20%29.89 "Hg10 mi
5:15 PM66 °FSunny.3 mph19%29.90 "Hg10 mi
4:55 PM70 °FSunny.8 mph18%29.91 "Hg10 mi
4:35 PM66 °FSunny.No wind18%29.91 "Hg10 mi
4:15 PM68 °FSunny.7 mph20%29.92 "Hg10 mi
3:55 PM66 °FSunny.3 mph21%29.92 "Hg10 mi
3:35 PM68 °FSunny.8 mph20%29.93 "Hg10 mi
3:15 PM66 °FSunny.6 mph21%29.94 "Hg10 mi
2:55 PM66 °FSunny.No wind22%29.95 "Hg10 mi
2:35 PM66 °FSunny.6 mph18%29.95 "Hg10 mi
2:15 PM66 °FSunny.9 mph21%29.96 "Hg10 mi
1:55 PM66 °FSunny.8 mph21%29.97 "Hg10 mi
1:35 PM66 °FSunny.10 mph21%29.97 "Hg10 mi
1:15 PM64 °FSunny.12 mph24%29.98 "Hg10 mi
12:55 PM64 °FSunny.13 mph24%29.98 "Hg10 mi
12:35 PM64 °FSunny.10 mph22%29.98 "Hg10 mi
12:15 PM64 °FSunny.6 mph24%29.99 "Hg10 mi
11:55 AM63 °FSunny.8 mph25%30.00 "Hg10 mi
11:35 AM63 °FSunny.12 mph25%30.00 "Hg10 mi
11:15 AM61 °FSunny.14 mph34%30.01 "Hg10 mi
10:55 AM61 °FSunny.14 mph27%30.01 "Hg10 mi
10:35 AM57 °FSunny.17 mph31%30.02 "Hg10 mi
10:15 AM57 °FSunny.16 mph31%30.02 "Hg10 mi
9:55 AM55 °FSunny.17 mph33%30.02 "Hg10 mi
9:35 AM54 °FSunny.17 mph35%30.02 "Hg10 mi
9:15 AM54 °FSunny.17 mph38%30.03 "Hg10 mi
8:55 AM52 °FSunny.16 mph26%30.03 "Hg10 mi
8:35 AM50 °FSunny.20 mph40%30.03 "Hg10 mi
8:15 AM48 °FSunny.17 mph43%30.03 "Hg10 mi
7:55 AM46 °FSunny.18 mph46%30.03 "Hg10 mi
7:35 AM45 °FSunny.16 mph49%30.03 "Hg10 mi
7:15 AM45 °FSunny.15 mph49%30.03 "Hg10 mi
6:55 AM43 °FSunny.12 mph53%30.02 "Hg10 mi
6:35 AM41 °FSunny.10 mph53%30.02 "Hg10 mi
6:15 AM41 °FClear.13 mph53%30.01 "Hg10 mi
5:55 AM41 °FClear.14 mph53%30.01 "Hg10 mi
5:35 AM39 °FClear.14 mph61%30.00 "Hg10 mi
5:15 AM39 °FClear.9 mph56%30.00 "Hg10 mi
4:55 AM39 °FClear.9 mph56%30.00 "Hg10 mi
4:35 AM39 °FClear.10 mph56%30.00 "Hg10 mi
4:15 AM39 °FClear.10 mph56%29.99 "Hg10 mi
3:55 AM43 °FClear.9 mph49%29.99 "Hg10 mi
3:35 AM43 °FClear.13 mph49%29.98 "Hg10 mi
3:15 AM43 °FClear.12 mph53%29.98 "Hg10 mi
2:55 AM43 °FClear.10 mph53%29.98 "Hg10 mi
2:35 AM45 °FClear.10 mph46%29.97 "Hg10 mi
2:15 AM45 °FClear.16 mph46%29.97 "Hg10 mi
1:55 AM45 °FClear.16 mph53%29.97 "Hg10 mi
1:35 AM43 °FClear.6 mph61%29.97 "Hg10 mi
1:15 AM43 °FClear.9 mph66%29.97 "Hg10 mi
12:55 AM43 °FClear.6 mph100%29.97 "Hg10 mi
12:35 AM43 °FClear.6 mph11%29.97 "Hg10 mi
12:15 AM39 °FClear.7 mph100%29.97 "Hg10 mi
11:55 PM
Sat, May 2
43 °FClear.6 mph61%29.96 "Hg10 mi
11:35 PM45 °FClear.6 mph61%29.96 "Hg10 mi
11:15 PM46 °FClear.3 mph57%29.96 "Hg10 mi
10:55 PM46 °FClear.6 mph57%29.95 "Hg10 mi
10:35 PM46 °FClear.5 mph57%29.95 "Hg10 mi
10:15 PM46 °FClear.6 mph50%29.94 "Hg10 mi
9:55 PM48 °FClear.6 mph46%29.94 "Hg10 mi
9:35 PM50 °FClear.8 mph47%29.94 "Hg10 mi
9:15 PM48 °FClear.6 mph46%29.93 "Hg10 mi
Weather by CustomWeather, © 2015

See weather overviewHow to use our weather pages